Tracking 18032 objects as of 25-March-2017
HD Live streaming from Space Station
objects crossing your sky now

COSMOS 1803

Track COSMOS 1803 now!
10-day predictions
COSMOS 1803 is classified as:


NORAD ID: 17177
Int'l Code: 1986-094A
Perigee: 1,504.8 km
Apogee: 1,509.5 km
Inclination: 82.6 °
Period: 116.0 minutes
Semi major axis: 7878 km
RCS: 10.2434 m2 (large)
Launch date: December 2, 1986
Source: Commonwealth of Independent States (former USSR) (CIS)
Launch site: PLESETSK MISSILE AND SPACE COMPLEX (PKMTR)
Your satellite tracking list
Your tracking list is empty





NASA's NSSDC Master Catalog

Two Line Element Set (TLE):
1 17177U 86094A   17082.92040104 +.00000041 +00000-0 +23120-3 0  9994
2 17177 082.6016 273.1003 0002976 229.5605 242.4996 12.41552423373476
Source of the keplerian elements: AFSPC